[[{"header":{"parameterUnit":"m.s-1","parameterCategory":1,"la1":30.2991,"la2":30.254,"lo1":-89.0895,"lo2":-89.0444,"dy":0.0017,"dx":0.0017,"nx":28,"ny":28,"refTime":"2025-05-23T09:00:00:Z","depth":0,"parameterNumber":2,"parameterNumberName":"U-component_of_WINDS"},"data":[0,0,0,0,0,0,0,0,0,0,0,0,0,0,0,0,0,0,0,0,0,0,0,0,0,0,0,0,0,0,0,0,0,0,0,0,0,0,0,0,0,0,0,0,0,0,0,0,0,0,0,0,0,0,0,0,0,0,-0.5358,-0.5357,0,-0.5296,-0.5295,-0.5295,-0.5245,-0.5244,-0.5244,-0.5243,-0.5179,-0.5178,-0.5176,0,0,0,0,0,0,0,0,0,0,0,0,0,-0.5432,-0.5431,-0.5358,-0.5357,-0.5357,-0.5296,-0.5295,-0.5294,-0.5245,-0.5244,-0.5244,-0.5243,-0.5179,-0.5178,-0.5176,0,0,0,0,0,0,0,0,0,0,0,0,0,-0.5388,-0.5431,-0.5358,-0.5325,-0.5321,-0.5296,-0.5295,-0.5294,-0.5245,-0.5244,-0.5244,-0.5243,-0.518,-0.5178,-0.5176,-0.5179,0,0,-0.517,-0.517,0,0,0,0,0,0,0,0,-0.5391,-0.5385,-0.533,-0.5327,-0.5323,-0.5277,-0.5297,-0.5256,-0.5245,-0.5274,-0.5243,-0.5243,-0.5212,-0.5208,-0.5198,-0.5176,-0.5174,-0.517,-0.5169,-0.5168,-0.5168,0,0,0,0,0,0,0,-0.5394,-0.5388,-0.5334,-0.533,-0.5325,-0.5312,-0.5305,-0.5289,-0.5248,-0.5271,-0.5268,-0.5261,-0.521,-0.52,-0.5196,-0.5173,-0.517,-0.5169,-0.5167,-0.5167,-0.5149,-0.515,0,0,0,0,0,0,-0.5402,-0.5391,-0.5335,-0.5332,-0.5356,-0.5311,-0.5303,-0.5293,-0.5248,-0.5241,-0.5262,-0.5259,-0.5203,-0.5198,-0.5193,-0.5193,-0.5168,-0.5166,-0.5165,-0.5148,-0.5149,-0.515,0,0,0,0,0,0,-0.5404,-0.5398,-0.5338,-0.536,-0.5351,-0.5311,-0.5299,-0.5292,-0.5281,-0.5241,-0.5233,-0.5259,-0.5202,-0.5196,-0.5183,-0.519,-0.5166,-0.5164,-0.5148,-0.5149,-0.5149,-0.5194,0,0,0,0,0,0,-0.5406,-0.5399,-0.54,-0.536,-0.535,-0.533,-0.53,-0.5291,-0.5278,-0.5274,-0.5236,-0.5229,-0.5201,-0.5186,-0.5181,-0.5187,-0.5162,-0.5147,-0.5148,-0.5149,-0.5192,-0.5196,-0.52,0,0,0,0,0,-0.5409,-0.5415,-0.5401,-0.5394,-0.5352,-0.533,-0.5324,-0.5293,-0.5279,-0.528,-0.5253,-0.523,-0.519,-0.5185,-0.5179,-0.5185,-0.5146,-0.5148,-0.5149,-0.519,-0.5195,-0.52,0,0,0,0,0,0,-0.5457,-0.541,-0.5393,-0.5386,-0.5363,-0.5322,-0.5322,-0.53,-0.528,-0.5276,-0.5238,-0.5229,-0.522,-0.5201,-0.5196,-0.5185,-0.5165,-0.5165,-0.5198,-0.5203,-0.5207,-0.5212,-0.5161,0,0,0,0,0,-0.5467,-0.5454,-0.5413,-0.5411,-0.54,-0.5363,-0.5353,-0.533,-0.5304,-0.5294,-0.5266,-0.5241,-0.5223,-0.5212,-0.5193,-0.5188,-0.5179,-0.5189,-0.5193,-0.5197,-0.5198,-0.5193,-0.5197,-0.5155,-0.5155,-0.5155,0,0,-0.5487,-0.546,-0.5454,-0.542,-0.5399,-0.5386,-0.5355,-0.5343,-0.5332,-0.5292,-0.5278,-0.5256,-0.5226,-0.5217,-0.5212,-0.5201,-0.5207,-0.5199,-0.5202,-0.5201,-0.5195,-0.5199,-0.5203,-0.5156,-0.5156,-0.5155,0,0,-0.5517,-0.5496,-0.5491,-0.5471,-0.5439,-0.5414,-0.5413,-0.5375,-0.5359,-0.5345,-0.5313,-0.53,-0.5269,-0.5249,-0.5234,-0.5254,-0.5232,-0.5249,-0.5272,-0.5267,-0.5271,-0.5273,-0.528,-0.5283,-0.525,-0.525,-0.525,0,-0.5547,-0.5526,-0.5492,-0.5481,-0.5466,-0.5429,-0.5423,-0.5405,-0.5369,-0.5359,-0.5347,-0.5307,-0.5284,-0.5269,-0.5274,-0.5263,-0.526,-0.5254,-0.5273,-0.5275,-0.5278,-0.5283,-0.5286,-0.5252,-0.5252,-0.5252,-0.5252,0,-0.5563,-0.5549,-0.5549,-0.5515,-0.55,-0.5493,-0.5456,-0.5445,-0.5424,-0.54,-0.5384,-0.5355,-0.5328,-0.5323,-0.5302,-0.5305,-0.5299,-0.5281,-0.526,-0.5284,-0.5289,-0.5291,-0.5256,-0.5255,-0.5254,-0.5253,0,0,-0.5623,-0.5569,-0.557,-0.5553,-0.5515,-0.5503,-0.5492,-0.5467,-0.5458,-0.5433,-0.5423,-0.5397,-0.538,-0.5363,-0.5339,-0.5335,-0.5352,-0.5317,-0.5316,-0.5324,-0.5352,-0.5366,-0.5369,-0.5336,-0.5337,-0.5337,-0.5354,0,-0.5647,-0.5627,-0.5595,-0.5585,-0.5571,-0.5534,-0.5525,-0.55,-0.5476,-0.546,-0.5434,-0.5416,-0.5395,-0.5384,-0.5379,-0.5351,-0.5357,-0.5349,-0.5326,-0.5325,-0.5335,-0.5372,-0.5387,-0.5405,-0.5356,-0.5356,-0.5357,0,-0.5673,-0.5651,-0.5639,-0.5601,-0.5593,-0.5586,-0.5559,-0.5544,-0.5514,-0.5497,-0.5478,-0.5452,-0.5437,-0.5418,-0.5398,-0.5393,-0.5381,-0.5366,-0.5366,-0.5363,-0.5343,-0.537,-0.541,-0.5413,-0.5359,-0.5359,-0.5359,0,-0.5718,-0.5685,-0.5673,-0.566,-0.5615,-0.561,-0.5591,-0.556,-0.5546,-0.5522,-0.5512,-0.5487,-0.5474,-0.5454,-0.5421,-0.541,-0.5403,-0.5382,-0.5389,-0.5389,-0.5389,-0.539,-0.5429,-0.5382,-0.5382,-0.5382,-0.5382,0,-0.5748,-0.5743,-0.5692,-0.5686,-0.5678,-0.564,-0.5633,-0.561,-0.5583,-0.557,-0.5536,-0.5525,-0.5481,-0.5465,-0.5438,-0.5425,-0.5419,-0.5404,-0.5397,-0.5407,-0.5409,-0.5399,-0.5397,-0.5382,-0.5382,-0.5382,-0.5382,0,-0.5797,-0.5763,-0.5748,-0.5706,-0.5695,-0.5691,-0.5655,-0.5646,-0.562,-0.5604,-0.5598,-0.5558,-0.5536,-0.55,-0.5468,-0.545,-0.5442,-0.543,-0.5452,-0.5448,-0.5456,-0.5456,-0.549,-0.5493,-0.5445,-0.5445,-0.5445,0,-0.5819,-0.5814,-0.5771,-0.576,-0.5742,-0.5725,-0.571,-0.5672,-0.5658,-0.5622,-0.5618,-0.5593,-0.5572,-0.5538,-0.5506,-0.548,-0.5468,-0.5482,-0.5464,-0.5474,-0.5468,-0.5469,-0.5467,-0.5486,-0.5487,-0.5487,-0.5488,0,-0.5861,-0.5844,-0.5825,-0.5799,-0.5783,-0.576,-0.5736,-0.5729,-0.5686,-0.5672,-0.5649,-0.5632,-0.5599,-0.5575,-0.5545,-0.5524,-0.5498,-0.5493,-0.5493,-0.5504,-0.5517,-0.551,-0.5463,-0.5493,-0.5492,-0.5492,-0.5492,-0.5492,-0.5897,-0.589,-0.5858,-0.5837,-0.5815,-0.5793,-0.5783,-0.5755,-0.5736,-0.5706,-0.5684,-0.5663,-0.5631,-0.5588,-0.5568,-0.555,-0.5539,-0.5539,-0.5539,-0.554,-0.5544,-0.5519,-0.5544,-0.5544,-0.5544,-0.5544,-0.5544,0,-0.5937,-0.5914,-0.5895,-0.5863,-0.5846,-0.5823,-0.5795,-0.5782,-0.5764,-0.5737,-0.5716,-0.5689,-0.5665,-0.5629,-0.5602,-0.5595,-0.5582,-0.5589,-0.5589,-0.5584,-0.5555,-0.5558,-0.5599,-0.5599,-0.5599,-0.5599,-0.5599,-0.5599,-0.5956,-0.5943,-0.5922,-0.5897,-0.5874,-0.5853,-0.5839,-0.5818,-0.5796,-0.5767,-0.5747,-0.5724,-0.5693,-0.5663,-0.564,-0.563,-0.5621,-0.5631,-0.5618,-0.5592,-0.5587,-0.5582,-0.5584,-0.563,-0.563,-0.5648,-0.5648,-0.5649]},{"header":{"parameterUnit":"m.s-1","parameterCategory":1,"la1":30.2991,"la2":30.254,"lo1":-89.0895,"lo2":-89.0444,"dy":0.0017,"dx":0.0017,"nx":28,"ny":28,"refTime":"2025-05-23T09:00:00:Z","depth":0,"parameterNumber":3,"parameterNumberName":"V-component_of_WINDS"},"data":[0,0,0,0,0,0,0,0,0,0,0,0,0,0,0,0,0,0,0,0,0,0,0,0,0,0,0,0,0,0,0,0,0,0,0,0,0,0,0,0,0,0,0,0,0,0,0,0,0,0,0,0,0,0,0,0,0,0,-0.1499,-0.1499,0,-0.148,-0.148,-0.148,-0.1501,-0.1502,-0.1503,-0.1503,-0.1482,-0.1481,-0.148,0,0,0,0,0,0,0,0,0,0,0,0,0,-0.1554,-0.1553,-0.15,-0.1499,-0.1499,-0.148,-0.148,-0.1479,-0.1501,-0.1502,-0.1503,-0.1504,-0.1483,-0.1481,-0.148,0,0,0,0,0,0,0,0,0,0,0,0,0,-0.1532,-0.1552,-0.15,-0.1507,-0.1508,-0.148,-0.148,-0.1479,-0.1501,-0.1502,-0.1503,-0.1504,-0.1483,-0.1481,-0.1479,-0.1443,0,0,-0.1473,-0.1473,0,0,0,0,0,0,0,0,-0.1533,-0.153,-0.1506,-0.1507,-0.1507,-0.1494,-0.1491,-0.1467,-0.15,-0.1503,-0.1503,-0.1505,-0.1485,-0.1483,-0.1477,-0.1442,-0.1441,-0.1473,-0.1472,-0.1471,-0.1471,0,0,0,0,0,0,0,-0.1535,-0.1531,-0.1492,-0.1506,-0.1507,-0.1511,-0.151,-0.1487,-0.1488,-0.1503,-0.1505,-0.1502,-0.1486,-0.1479,-0.1476,-0.1441,-0.1473,-0.1472,-0.147,-0.147,-0.1373,-0.1372,0,0,0,0,0,0,-0.1535,-0.1532,-0.1492,-0.1491,-0.1523,-0.1509,-0.1507,-0.1497,-0.1488,-0.1488,-0.1501,-0.1503,-0.1481,-0.1479,-0.1476,-0.1431,-0.1471,-0.1469,-0.1468,-0.1375,-0.1373,-0.1372,0,0,0,0,0,0,-0.1536,-0.1532,-0.1493,-0.1512,-0.1507,-0.1507,-0.1495,-0.1496,-0.1489,-0.1486,-0.1487,-0.1494,-0.1482,-0.1479,-0.1451,-0.1431,-0.1468,-0.1467,-0.1376,-0.1374,-0.1372,-0.1342,0,0,0,0,0,0,-0.1538,-0.1532,-0.1518,-0.1511,-0.1506,-0.1469,-0.1494,-0.1495,-0.1486,-0.1488,-0.148,-0.1479,-0.1483,-0.1453,-0.1449,-0.1429,-0.1465,-0.1378,-0.1375,-0.1373,-0.1345,-0.134,-0.1335,0,0,0,0,0,-0.154,-0.1511,-0.1517,-0.1513,-0.1489,-0.1467,-0.1464,-0.1469,-0.1484,-0.147,-0.1468,-0.148,-0.1434,-0.145,-0.1445,-0.1424,-0.1379,-0.1376,-0.1373,-0.1347,-0.1341,-0.1335,0,0,0,0,0,0,-0.1515,-0.151,-0.1517,-0.1485,-0.1477,-0.1471,-0.1454,-0.1462,-0.1449,-0.1452,-0.1459,-0.1457,-0.1427,-0.1423,-0.1441,-0.1388,-0.1409,-0.1405,-0.1391,-0.1385,-0.138,-0.1381,-0.1464,0,0,0,0,0,-0.1506,-0.1489,-0.1485,-0.1457,-0.1453,-0.1454,-0.1444,-0.1449,-0.144,-0.1436,-0.1433,-0.1423,-0.1407,-0.1396,-0.1381,-0.1345,-0.1343,-0.1328,-0.1323,-0.1319,-0.1315,-0.1294,-0.1287,-0.1361,-0.1361,-0.1361,0,0,-0.1487,-0.1482,-0.1471,-0.1452,-0.1446,-0.1427,-0.145,-0.143,-0.1416,-0.1433,-0.1406,-0.1403,-0.1393,-0.1361,-0.1347,-0.1357,-0.1294,-0.1315,-0.1312,-0.131,-0.1291,-0.1283,-0.1277,-0.1359,-0.136,-0.136,0,0,-0.1442,-0.1437,-0.1413,-0.1406,-0.1396,-0.1397,-0.1391,-0.1384,-0.1383,-0.1356,-0.1368,-0.1352,-0.1323,-0.1315,-0.1308,-0.1259,-0.1269,-0.1254,-0.1227,-0.1207,-0.1201,-0.1196,-0.1178,-0.1171,-0.125,-0.125,-0.125,0,-0.1419,-0.1392,-0.1399,-0.1377,-0.1368,-0.1383,-0.1358,-0.1351,-0.1337,-0.133,-0.1342,-0.1307,-0.1301,-0.1266,-0.1255,-0.1248,-0.1241,-0.1255,-0.1202,-0.1197,-0.1192,-0.1174,-0.1167,-0.1249,-0.1249,-0.1249,-0.1249,0,-0.1364,-0.1345,-0.1326,-0.1312,-0.1301,-0.1278,-0.1281,-0.1269,-0.1274,-0.1274,-0.1246,-0.124,-0.1223,-0.1215,-0.1221,-0.1181,-0.1188,-0.1201,-0.1222,-0.1183,-0.1166,-0.116,-0.1246,-0.1247,-0.1247,-0.1248,0,0,-0.1302,-0.1292,-0.1285,-0.1278,-0.1269,-0.1254,-0.1231,-0.1215,-0.1204,-0.1194,-0.1174,-0.115,-0.1161,-0.1152,-0.1157,-0.114,-0.11,-0.1155,-0.1154,-0.1144,-0.1055,-0.1045,-0.1037,-0.1107,-0.1106,-0.1105,-0.1056,0,-0.1257,-0.1217,-0.1222,-0.1184,-0.1166,-0.118,-0.116,-0.1152,-0.115,-0.1135,-0.1134,-0.1116,-0.1133,-0.1127,-0.1111,-0.1109,-0.1083,-0.1113,-0.1088,-0.1087,-0.1089,-0.1029,-0.1018,-0.0972,-0.105,-0.1048,-0.1048,0,-0.1198,-0.1185,-0.1145,-0.1137,-0.113,-0.1112,-0.1097,-0.1082,-0.1073,-0.1073,-0.1063,-0.107,-0.1047,-0.1069,-0.1036,-0.1057,-0.1047,-0.1044,-0.1043,-0.104,-0.1064,-0.1023,-0.0957,-0.095,-0.1038,-0.1039,-0.1039,0,-0.1155,-0.1129,-0.1101,-0.1095,-0.1086,-0.1072,-0.1068,-0.106,-0.1049,-0.1036,-0.1029,-0.1014,-0.1005,-0.0992,-0.0995,-0.1011,-0.0961,-0.0984,-0.096,-0.096,-0.0948,-0.0948,-0.0878,-0.0944,-0.0944,-0.0944,-0.0944,0,-0.1103,-0.1078,-0.1082,-0.1064,-0.1036,-0.1042,-0.1014,-0.1011,-0.1004,-0.0986,-0.0997,-0.098,-0.0985,-0.0968,-0.097,-0.0942,-0.0938,-0.0937,-0.0938,-0.0936,-0.0936,-0.0929,-0.0932,-0.0942,-0.0942,-0.0943,-0.0943,0,-0.105,-0.1052,-0.1023,-0.1016,-0.1014,-0.0993,-0.0988,-0.0971,-0.0971,-0.0948,-0.0943,-0.0943,-0.0923,-0.0925,-0.0903,-0.0905,-0.0869,-0.0874,-0.0872,-0.0873,-0.0848,-0.085,-0.077,-0.076,-0.0833,-0.0832,-0.0832,0,-0.1016,-0.0997,-0.0988,-0.0977,-0.0972,-0.0954,-0.0943,-0.0949,-0.0937,-0.0924,-0.0909,-0.0891,-0.0876,-0.0844,-0.0841,-0.0824,-0.0828,-0.0802,-0.0826,-0.0824,-0.0827,-0.0827,-0.0825,-0.0797,-0.0796,-0.0795,-0.0795,0,-0.0955,-0.0957,-0.0941,-0.0926,-0.0913,-0.0901,-0.089,-0.088,-0.0884,-0.087,-0.085,-0.0839,-0.0817,-0.0798,-0.0782,-0.0777,-0.0786,-0.0787,-0.078,-0.0777,-0.0776,-0.0775,-0.0858,-0.0789,-0.0789,-0.079,-0.079,-0.079,-0.091,-0.0893,-0.0884,-0.0866,-0.0859,-0.0848,-0.0832,-0.083,-0.0813,-0.0795,-0.08,-0.0777,-0.0767,-0.0746,-0.074,-0.0722,-0.0731,-0.0722,-0.0719,-0.0716,-0.0713,-0.078,-0.0719,-0.0719,-0.0719,-0.0719,-0.0719,0,-0.0848,-0.0843,-0.0826,-0.0811,-0.0796,-0.0807,-0.0795,-0.0782,-0.0762,-0.0753,-0.0738,-0.0715,-0.0696,-0.0692,-0.0674,-0.0661,-0.0664,-0.0656,-0.0656,-0.0655,-0.0706,-0.0713,-0.0653,-0.0653,-0.0653,-0.0653,-0.0653,-0.0653,-0.0814,-0.0786,-0.0786,-0.0754,-0.0749,-0.0727,-0.072,-0.071,-0.0702,-0.0675,-0.066,-0.0658,-0.065,-0.0632,-0.0615,-0.0614,-0.0607,-0.0596,-0.0597,-0.0645,-0.0651,-0.0658,-0.0664,-0.0595,-0.0595,-0.0547,-0.0546,-0.0546]}]]